N82TWC -KCLR

Flight info

Callsign N82TWC
Flight time N/A
Altitude VFR
Route
Aircraft C152/L-DOV/C

Departure

Time N/A
Airport -

Arrival

Time 2026-04-21 02:43
Airport Cliff Hatfield Memorial Airport (KCLR)
Time Latitude Longitude Altitude Speed Heading
2026-04-21 02:25 33.40702 -115.88159 2860 ft 98 kts 134°
2026-04-21 02:26 33.40286 -115.87617 2891 ft 93 kts 142°
2026-04-21 02:26 33.40068 -115.87350 2888 ft 95 kts 141°
2026-04-21 02:26 33.39594 -115.86803 2902 ft 93 kts 143°
2026-04-21 02:26 33.39105 -115.86280 2882 ft 98 kts 142°
2026-04-21 02:27 33.38592 -115.85720 2861 ft 99 kts 143°
2026-04-21 02:27 33.38089 -115.85169 2842 ft 97 kts 141°
2026-04-21 02:27 33.37630 -115.84581 2851 ft 96 kts 135°
2026-04-21 02:27 33.37215 -115.83947 2870 ft 99 kts 133°
2026-04-21 02:28 33.36799 -115.83271 2848 ft 104 kts 133°
2026-04-21 02:28 33.36349 -115.82611 2859 ft 101 kts 139°
2026-04-21 02:28 33.35865 -115.82033 2875 ft 95 kts 143°
2026-04-21 02:28 33.35365 -115.81505 2881 ft 98 kts 144°
2026-04-21 02:29 33.34921 -115.80979 2860 ft 101 kts 137°
2026-04-21 02:29 33.34510 -115.80401 2823 ft 102 kts 136°
2026-04-21 02:29 33.34080 -115.79754 2821 ft 97 kts 135°
2026-04-21 02:29 33.33652 -115.79123 2822 ft 96 kts 136°
2026-04-21 02:30 33.33220 -115.78514 2827 ft 97 kts 138°
2026-04-21 02:30 33.32775 -115.77921 2860 ft 93 kts 137°
2026-04-21 02:30 33.32371 -115.77344 2914 ft 87 kts 136°
2026-04-21 02:30 33.31996 -115.76818 3005 ft 82 kts 139°
2026-04-21 02:31 33.31588 -115.76319 3040 ft 87 kts 143°
2026-04-21 02:31 33.31161 -115.75802 3066 ft 88 kts 140°
2026-04-21 02:31 33.30764 -115.75242 3110 ft 88 kts 135°
2026-04-21 02:31 33.30338 -115.74668 3042 ft 93 kts 142°
2026-04-21 02:32 33.29880 -115.74147 3063 ft 89 kts 142°
2026-04-21 02:32 33.29468 -115.73572 3032 ft 95 kts 134°
2026-04-21 02:32 33.29023 -115.72957 2961 ft 95 kts 140°
2026-04-21 02:32 33.28575 -115.72394 2972 ft 93 kts 137°
2026-04-21 02:33 33.28163 -115.71818 3013 ft 89 kts 139°
2026-04-21 02:33 33.27734 -115.71284 3008 ft 91 kts 143°
2026-04-21 02:33 33.27260 -115.70788 2989 ft 90 kts 148°
2026-04-21 02:33 33.26825 -115.70244 2978 ft 88 kts 139°
2026-04-21 02:34 33.26455 -115.69641 2954 ft 91 kts 133°
2026-04-21 02:34 33.26064 -115.69050 2940 ft 90 kts 137°
2026-04-21 02:34 33.25642 -115.68506 2914 ft 91 kts 141°
2026-04-21 02:34 33.25217 -115.67961 2975 ft 88 kts 140°
2026-04-21 02:35 33.24790 -115.67421 3029 ft 87 kts 141°
2026-04-21 02:35 33.24382 -115.66874 3052 ft 90 kts 134°
2026-04-21 02:35 33.23961 -115.66296 2981 ft 95 kts 141°
2026-04-21 02:35 33.23491 -115.65762 2936 ft 92 kts 145°
2026-04-21 02:36 33.23011 -115.65285 2946 ft 89 kts 150°
2026-04-21 02:36 33.22507 -115.64876 2961 ft 88 kts 155°
2026-04-21 02:36 33.21992 -115.64490 2962 ft 89 kts 148°
2026-04-21 02:36 33.21548 -115.63966 2967 ft 90 kts 137°
2026-04-21 02:37 33.21147 -115.63419 3011 ft 87 kts 140°
2026-04-21 02:37 33.20713 -115.62910 2973 ft 93 kts 146°
2026-04-21 02:37 33.20278 -115.62312 2945 ft 94 kts 139°
2026-04-21 02:37 33.19826 -115.61761 2950 ft 91 kts 141°
2026-04-21 02:38 33.19396 -115.61235 3002 ft 87 kts 142°
2026-04-21 02:38 33.18941 -115.60731 2970 ft 92 kts 148°
2026-04-21 02:38 33.18438 -115.60252 2947 ft 94 kts 149°
2026-04-21 02:38 33.17890 -115.59774 2826 ft 101 kts 152°
2026-04-21 02:39 33.17282 -115.59327 2648 ft 105 kts 157°
2026-04-21 02:39 33.16620 -115.58964 2442 ft 106 kts 162°
2026-04-21 02:39 33.15944 -115.58667 2226 ft 98 kts 167°
2026-04-21 02:39 33.15261 -115.58458 1991 ft 105 kts 176°
2026-04-21 02:40 33.14551 -115.58527 1838 ft 99 kts 197°
2026-04-21 02:40 33.13906 -115.58733 1758 ft 94 kts 194°
2026-04-21 02:40 33.13280 -115.58607 1621 ft 102 kts 150°
2026-04-21 02:40 33.12845 -115.57986 1710 ft 92 kts 106°
2026-04-21 02:41 33.12987 -115.57200 1578 ft 94 kts 82°
2026-04-21 02:41 33.13145 -115.56472 1288 ft 94 kts 90°
2026-04-21 02:41 33.13200 -115.55732 1159 ft 78 kts 94°
2026-04-21 02:41 33.13216 -115.55135 960 ft 70 kts 102°
2026-04-21 02:42 33.13153 -115.54581 680 ft 64 kts 104°
2026-04-21 02:42 33.13136 -115.54046 375 ft 65 kts 100°
2026-04-21 02:42 33.13150 -115.53525 132 ft 59 kts 92°
2026-04-21 02:42 33.13114 -115.53060 -48 ft 59 kts 103°
2026-04-21 02:43 33.13144 -115.52626 -179 ft 46 kts 101°
2026-04-21 02:43 33.13134 -115.52323 -197 ft 30 kts 91°
2026-04-21 02:43 33.13134 -115.52096 -191 ft 27 kts 90°
2026-04-21 02:43 33.13132 -115.51898 -190 ft 21 kts 89°
2026-04-21 02:44 33.13129 -115.51748 -186 ft 15 kts 104°
2026-04-21 02:44 33.13074 -115.51723 -187 ft 11 kts 232°
2026-04-21 02:44 33.13069 -115.51867 -190 ft 25 kts 275°
2026-04-21 02:44 33.13038 -115.52087 -192 ft 26 kts 216°
2026-04-21 02:45 33.13005 -115.52108 -192 ft 0 kts 169°